Location: Unspecified
(0.0000°N, 0.0000°E)
Time: 06:52:04
(UTC+00:00)

Courier 1B - Pass Details

Date: 26 September 2023
Orbit: 962 x 1208 km, 28.3° (Epoch: 06 December)

Event Time Altitude Azimuth Distance (km) Brightness Sun altitude
Rises 12:39:53 0° 288° (WNW) 4,013 10.9 77.8°
Reaches altitude 10° 12:44:33 10° 313° (NW) 3,092 10.4 76.7°
Maximum altitude 12:48:01 13° 340° (NNW) 2,856 10.2 75.8°
Drops below altitude 10° 12:51:33 10° 7° (N) 3,128 10.3 74.9°
Sets 12:56:21 0° 33° (NNE) 4,098 10.7 73.7°
